DELTA 1 DEB, 7080

Orbit data source: Space-Track

DELTA 1 DEB, 7080 is space debris in SSO originally from a launch on Tue, 06 Nov 1973 UTC launched from the Air Force Western Test Range (AFWTR). Debris objects in space refer to the collection of defunct objects orbiting the Earth. Examples of debris include non-operational satellites, rocket bodies, and fragments generated from explosions, collisions, or faulty payload assembly.

Loading next visibility...
Identifier
7080, 1973-086BY
Orbit
SSO
Country
Flag of USUS
Related business
Manufacturer
Unknown
Mission
Spacecraft
Bus & Motor
Unknown
Mass
Unknown
Launch date (UTC)
1973-11-06 (52 years ago)
Launch vehicle
Unknown
Launch site
Air Force Western Test Range (AFWTR)
Object type
Payload
Rocket body
Debris
Shape & HBR
Unknown shape, 0.1 m
Radar Cross Section
Medium (>0.1 m² and <1 m²)

Expand to show TLE details & history
Last TLE update: 9 hours ago

TLE from 9 hours ago
0 DELTA 1 DEB
1 07080U 73086BY  25292.92243795  .00000915  00000-0  48242-2 0  9997
2 07080 101.9192 276.7023 0050269 312.7362 104.0290 12.70077058379601
Epoch: 2025-10-19T22:08Z
TLE epoch observation values (Epoch: 2025-10-19T22:08:18.638Z)
Latitude
55.54013°
Longitude
-101.82993°
Altitude
1,400.289 km
Speed
7.161 km/s
True Right ascension
17h 15m 31s
True Declination
55° 23' 34"
Sunlit
Object was in daylight at epoch
Visualization orbit readout
Latitude
Unknown
Longitude
Unknown
Altitude
Unknown
Speed
Unknown
Apparent Right ascension
Unknown
Apparent Declination
Unknown
Sunlit
N/A
Visualization observer readout
Local Sidereal Time
01:38:19
Azimuth
Unknown
Elevation
Unknown
Doppler factor
Unknown
Orbital elements
Apogee altitude
1,418.152 km
Perigee altitude
1,340.162 km
Semi-major axis
7,757.294 km
Eccentricity
0.00503
Inclination
101.9192°
RAAN
276.7023°
Arg. of periapsis
312.7362°
True anomaly
104.587°
Mean anomaly
104.029°
Eccentric anomaly
104.30809°
Mean motion
3.17671 °/min
Orbital period
113.32 mins
BSTAR
0.0048242
Loading maneuver chart data...
Computing Atmospheric mass density...
Loading historical data...
Loading historical data...
Loading historical data...
Loading historical data...
Loading historical data...
Loading historical data...
Loading historical data...

Documentation

Showing up to 5 results
|